TimeCST,TemperatureF,Dew PointF,Humidity,Sea Level PressureIn,VisibilityMPH,Wind Direction,Wind SpeedMPH,Gust SpeedMPH,PrecipitationIn,Events,Conditions,WindDirDegrees,DateUTC
12:54 AM,39.0,28.0,65,30.03,10.0,SSW,5.8,-,N/A,,Overcast,200,2014-03-01 06:54:00
1:54 AM,37.9,28.0,68,30.03,10.0,SW,5.8,-,N/A,,Overcast,220,2014-03-01 07:54:00
2:54 AM,37.9,28.9,70,30.03,10.0,WSW,4.6,-,N/A,,Overcast,240,2014-03-01 08:54:00
3:54 AM,37.0,28.0,70,30.05,10.0,WNW,4.6,-,N/A,,Overcast,300,2014-03-01 09:54:00
4:16 AM,37.0,28.0,70,30.04,10.0,Calm,Calm,-,N/A,,Scattered Clouds,0,2014-03-01 10:16:00
4:54 AM,35.1,28.0,76,30.07,10.0,West,3.5,-,N/A,,Clear,270,2014-03-01 10:54:00
5:54 AM,30.0,24.1,79,30.11,10.0,North,9.2,-,N/A,,Clear,10,2014-03-01 11:54:00
6:54 AM,30.0,24.1,79,30.14,10.0,North,15.0,-,N/A,,Overcast,10,2014-03-01 12:54:00
7:54 AM,30.0,23.0,75,30.18,9.0,North,13.8,-,N/A,,Overcast,10,2014-03-01 13:54:00
8:28 AM,28.0,21.9,78,30.17,10.0,North,13.8,-,N/A,,Overcast,10,2014-03-01 14:28:00
8:54 AM,28.9,21.9,75,30.20,10.0,North,11.5,-,N/A,,Overcast,10,2014-03-01 14:54:00
9:54 AM,28.0,21.0,75,30.23,10.0,NNE,10.4,-,N/A,,Overcast,20,2014-03-01 15:54:00
10:19 AM,28.0,21.0,75,30.21,10.0,North,13.8,-,N/A,,Overcast,10,2014-03-01 16:19:00
10:54 AM,28.9,21.0,72,30.22,10.0,NE,11.5,-,N/A,,Overcast,40,2014-03-01 16:54:00
11:02 AM,28.9,21.0,72,30.20,10.0,NNE,10.4,-,N/A,,Overcast,30,2014-03-01 17:02:00
11:54 AM,28.9,21.0,72,30.23,10.0,North,12.7,-,N/A,,Overcast,10,2014-03-01 17:54:00
12:54 PM,27.0,21.0,78,30.23,10.0,North,12.7,-,N/A,,Overcast,360,2014-03-01 18:54:00
1:54 PM,26.1,19.9,78,30.21,10.0,NNE,12.7,-,N/A,,Overcast,20,2014-03-01 19:54:00
2:54 PM,26.1,19.9,78,30.21,10.0,NNE,13.8,-,N/A,,Overcast,20,2014-03-01 20:54:00
3:29 PM,26.1,19.0,75,30.19,10.0,NE,10.4,-,N/A,,Overcast,50,2014-03-01 21:29:00
3:41 PM,26.1,19.0,75,30.17,10.0,NE,11.5,-,N/A,,Overcast,40,2014-03-01 21:41:00
3:54 PM,26.1,19.0,75,30.22,10.0,North,12.7,-,N/A,,Overcast,10,2014-03-01 21:54:00
4:54 PM,24.1,19.0,81,30.23,5.0,NNE,13.8,-,0.00,,Overcast,20,2014-03-01 22:54:00
5:15 PM,24.1,19.0,81,30.20,5.0,NNE,16.1,-,0.00,,Haze,20,2014-03-01 23:15:00
5:25 PM,23.0,19.0,85,30.20,5.0,NNE,16.1,-,0.00,,Overcast,30,2014-03-01 23:25:00
5:32 PM,23.0,19.0,85,30.20,4.0,NE,15.0,-,0.00,Rain,Light Freezing Rain,40,2014-03-01 23:32:00
5:51 PM,23.0,19.4,86,30.20,4.0,NNE,16.1,-,0.00,Rain,Light Freezing Rain,30,2014-03-01 23:51:00
5:54 PM,23.0,19.0,85,30.23,4.0,NNE,16.1,-,0.00,,Overcast,20,2014-03-01 23:54:00
6:54 PM,21.9,19.0,89,30.25,5.0,NE,16.1,-,N/A,,Overcast,40,2014-03-02 00:54:00
7:34 PM,21.9,18.0,85,30.23,5.0,NNE,19.6,-,N/A,,Overcast,20,2014-03-02 01:34:00
7:50 PM,21.2,17.6,86,30.23,4.0,NNE,17.3,-,0.00,Rain,Light Freezing Rain,30,2014-03-02 01:50:00
7:54 PM,21.9,18.0,85,30.27,4.0,NNE,16.1,-,0.00,Rain,Light Freezing Rain,30,2014-03-02 01:54:00
8:42 PM,21.0,18.0,88,30.23,4.0,NNE,12.7,-,0.00,,Overcast,30,2014-03-02 02:42:00
8:54 PM,21.0,18.0,88,30.27,4.0,NNE,15.0,-,0.00,Rain,Light Freezing Rain,30,2014-03-02 02:54:00
9:54 PM,21.0,18.0,88,30.31,4.0,North,13.8,-,0.00,Rain,Light Freezing Rain,360,2014-03-02 03:54:00
10:01 PM,19.9,18.0,92,30.28,3.0,North,13.8,-,0.00,Snow,Light Snow,10,2014-03-02 04:01:00
10:54 PM,19.0,15.1,85,30.31,6.0,NNE,16.1,-,0.00,,Overcast,20,2014-03-02 04:54:00
11:16 PM,18.0,15.1,88,30.28,7.0,North,18.4,-,0.00,Rain,Light Freezing Rain,10,2014-03-02 05:16:00
11:29 PM,18.0,15.1,88,30.26,7.0,NNE,12.7,-,0.00,,Overcast,20,2014-03-02 05:29:00
11:42 PM,18.0,15.1,88,30.28,5.0,North,15.0,-,0.00,Rain,Light Freezing Rain,360,2014-03-02 05:42:00
11:54 PM,17.1,14.0,88,30.30,4.0,NNE,12.7,-,0.00,Snow,Light Snow,20,2014-03-02 05:54:00